TimeEST,TemperatureF,Dew PointF,Humidity,Sea Level PressureIn,VisibilityMPH,Wind Direction,Wind SpeedMPH,Gust SpeedMPH,PrecipitationIn,Events,Conditions,WindDirDegrees,DateUTC
12:54 AM,28.9,19.0,67,30.40,10.0,North,3.5,-,N/A,,Overcast,360,2011-11-21 05:54:00
1:54 AM,28.9,19.0,67,30.40,10.0,WNW,4.6,-,N/A,,Overcast,290,2011-11-21 06:54:00
2:54 AM,28.9,19.0,67,30.40,10.0,Calm,Calm,-,N/A,,Overcast,0,2011-11-21 07:54:00
3:54 AM,28.0,19.0,69,30.40,10.0,NW,3.5,-,N/A,,Overcast,310,2011-11-21 08:54:00
4:54 AM,28.0,19.0,69,30.41,10.0,West,3.5,-,N/A,,Overcast,280,2011-11-21 09:54:00
5:54 AM,28.0,19.0,69,30.42,10.0,WNW,4.6,-,N/A,,Overcast,300,2011-11-21 10:54:00
6:54 AM,28.0,19.0,69,30.41,10.0,Calm,Calm,-,N/A,,Overcast,0,2011-11-21 11:54:00
7:54 AM,28.0,19.9,72,30.44,10.0,West,3.5,-,N/A,,Overcast,280,2011-11-21 12:54:00
8:54 AM,28.9,19.9,69,30.45,10.0,Variable,3.5,-,N/A,,Overcast,0,2011-11-21 13:54:00
9:01 AM,28.4,19.4,69,30.42,10.0,West,5.8,-,N/A,,Overcast,270,2011-11-21 14:01:00
9:54 AM,30.9,19.9,64,30.44,10.0,Calm,Calm,-,N/A,,Overcast,0,2011-11-21 14:54:00
10:54 AM,32.0,21.0,64,30.43,10.0,SSW,3.5,-,N/A,,Overcast,200,2011-11-21 15:54:00
11:54 AM,34.0,21.9,61,30.41,10.0,South,5.8,-,N/A,,Scattered Clouds,180,2011-11-21 16:54:00
12:54 PM,36.0,21.9,57,30.38,10.0,Variable,3.5,-,N/A,,Partly Cloudy,0,2011-11-21 17:54:00
1:54 PM,37.0,21.9,54,30.36,10.0,SSW,3.5,-,N/A,,Partly Cloudy,210,2011-11-21 18:54:00
2:54 PM,37.0,21.9,54,30.35,10.0,SW,3.5,-,N/A,,Partly Cloudy,230,2011-11-21 19:54:00
3:54 PM,37.0,21.0,52,30.34,10.0,Calm,Calm,-,N/A,,Clear,0,2011-11-21 20:54:00
4:54 PM,34.0,24.1,67,30.36,10.0,Calm,Calm,-,N/A,,Clear,0,2011-11-21 21:54:00
5:54 PM,28.9,23.0,78,30.36,10.0,East,3.5,-,N/A,,Clear,90,2011-11-21 22:54:00
6:54 PM,23.0,19.9,88,30.38,10.0,North,4.6,-,N/A,,Clear,10,2011-11-21 23:54:00
7:54 PM,26.1,21.9,84,30.37,10.0,Calm,Calm,-,N/A,,Clear,0,2011-11-22 00:54:00
8:54 PM,23.0,21.0,92,30.38,10.0,Calm,Calm,-,N/A,,Clear,0,2011-11-22 01:54:00
9:43 PM,24.8,21.2,86,30.34,10.0,Calm,Calm,-,N/A,,Mostly Cloudy,0,2011-11-22 02:43:00
9:54 PM,25.0,21.0,85,30.37,10.0,Calm,Calm,-,N/A,,Mostly Cloudy,0,2011-11-22 02:54:00
10:12 PM,24.8,21.2,86,30.33,10.0,Calm,Calm,-,N/A,,Scattered Clouds,0,2011-11-22 03:12:00
10:54 PM,23.0,19.9,88,30.38,10.0,Calm,Calm,-,N/A,,Clear,0,2011-11-22 03:54:00
11:17 PM,23.0,21.2,93,30.34,10.0,Calm,Calm,-,N/A,,Mostly Cloudy,0,2011-11-22 04:17:00
11:32 PM,24.8,21.2,86,30.33,10.0,Calm,Calm,-,N/A,,Scattered Clouds,0,2011-11-22 04:32:00
11:54 PM,23.0,19.9,88,30.37,10.0,Calm,Calm,-,N/A,,Clear,0,2011-11-22 04:54:00